Simultaneous Nadir Overpasses (SNOs) Predictions

Prediction of SNOs between AQUA and METOP-C Satellite Orbit:

Table of predicted SNOs for the next 14.0 days since TLE Epoch: 12/20/2019
Index Date (AQUA) Time (AQUA) Lat,Lon (AQUA) SZA (AQUA ) Date (METOP-C) Time (METOP-C) Lat,Lon (METOP-C) SZA (METOP-C ) Distance(km) Time Diff (sec)
1 12/23/2019 15:43:01 73.73, -61.37 97.13 12/23/2019 15:42:18 73.73, -61.37 97.14 0.29 43
2 12/23/2019 16:32:27 -73.78, 106.16 82.82 12/23/2019 16:32:58 -73.77, 106.05 82.83 3.68 31
3 12/26/2019 11:17:16 73.71, 5.11 97.05 12/26/2019 11:16:07 73.71, 5.15 97.07 1.52 69
4 12/26/2019 12:06:42 -73.76, 172.65 82.90 12/26/2019 12:06:47 -73.76, 172.60 82.89 1.75 5
5 12/26/2019 12:56:12 73.86, -19.94 97.21 12/26/2019 12:57:25 73.85, -19.86 97.19 2.81 73
6 12/29/2019 07:40:57 -73.74,-120.87 83.04 12/29/2019 07:40:36 -73.76,-120.85 83.01 2.49 21
7 12/29/2019 08:30:26 73.79, 46.65 97.02 12/29/2019 08:31:15 73.79, 46.55 97.02 3.11 49
8 01/01/2020 03:15:11 -73.72, -54.40 83.23 01/01/2020 03:14:25 -73.71, -54.42 83.24 2.10 46
9 01/01/2020 04:04:40 73.78, 113.11 96.83 01/01/2020 04:05:03 73.77, 113.07 96.82 1.50 23




NCC Satellite Simultaneous Nadir Overpasses (SNOs) Prediction Service
